COSMOS 1823 DEB, 18757

Orbit data source: Space-Track

COSMOS 1823 DEB, 18757 is space debris in LEO originally from a launch on Fri, 20 Feb 1987 UTC launched from the Plesetsk Missile And Space Complex (PKMTR). Debris objects in space refer to the collection of defunct objects orbiting the Earth. Examples of debris include non-operational satellites, rocket bodies, and fragments generated from explosions, collisions, or faulty payload assembly.

Loading next visibility...
Identifier
18757, 1987-020AJ
Orbit
LEO
Country
Flag of CISCIS
Related business
Manufacturer
Unknown
Mission
Spacecraft
Bus & Motor
Unknown
Mass
Unknown
Launch date (UTC)
1987-02-20 (39 years ago)
Launch vehicle
Unknown
Launch site
Plesetsk Missile And Space Complex (PKMTR)
Object type
Payload
Rocket body
Debris
Shape & HBR
Unknown shape, 0.1 m
Radar Cross Section
Medium (>0.1 m² and <1 m²)

Expand to show TLE details & history
Last TLE update: 2 days ago

TLE from 2 days ago
0 COSMOS 1823 DEB
1 18757U 87020AJ  26171.44838559  .00006136  00000-0  10868-1 0  9998
2 18757  73.7095 241.1230 0015409 284.4369  92.6149 13.42546568800518
Epoch: 2026-06-20T10:45Z
TLE epoch observation values (Epoch: 2026-06-20T10:45:40.514Z)
Latitude
16.50679°
Longitude
175.98405°
Altitude
1,102.196 km
Speed
7.302 km/s
True Right ascension
16h 24m 15s
True Declination
16° 25' 04"
Sunlit
Object was in full shadow at epoch
Visualization orbit readout
Latitude
Unknown
Longitude
Unknown
Altitude
Unknown
Speed
Unknown
Apparent Right ascension
Unknown
Apparent Declination
Unknown
Sunlit
N/A
Visualization observer readout
Local Sidereal Time
05:02:42
Azimuth
Unknown
Elevation
Unknown
Doppler factor
Unknown
Orbital elements
Apogee altitude
1,109.083 km
Perigee altitude
1,086.044 km
Semi-major axis
7,475.7 km
Eccentricity
0.00154
Inclination
73.7095°
RAAN
241.123°
Arg. of periapsis
284.4369°
True anomaly
92.79127°
Mean anomaly
92.6149°
Eccentric anomaly
92.70309°
Mean motion
3.35788 °/min
Orbital period
107.21 mins
BSTAR
0.010868
Loading maneuver chart data...
Computing Atmospheric mass density...
Loading historical data...
Loading historical data...
Loading historical data...
Loading historical data...
Loading historical data...
Loading historical data...
Loading historical data...

Documentation

Showing up to 5 results
|